ISTANBUL

导读 | 星芒AI

ISTANBUL 卫星是由土耳其自主研发的一颗地球观测卫星,由土耳其航天局(TUA)主导,旨在提升国家在遥感和空间技术领域的自主能力。该卫星主要用于环境监测、农业评估、灾害管理及城市规划等领域。ISTANBUL 卫星的成功发射标志着土耳其在航天科技方面的重要进展,增强了其在国际航天领域的地位。

基本信息
目录编号:
56230
目录名称:
ISTANBUL
国际标识:
2023-084BP
轨道中心:
EARTH
卫星名称:
ISTANBUL
卫星全名:
--
卫星状态:
已陨落 最后检测时间 2024-04-09
发射日期:
2023-06-12 UTC
国别 :
土耳其 (TR)
星等 :
--
轨道信息
数据来源 国际轨道数据
星历时间: 2024-04-02T04:03:47+0800
轨道信息已过期620天
半长轴: 6542.355km
偏心率: 0.0017239
轨道倾角: 97.486°
近地点辐角 279.036°
升交点赤经 218.007°
平近点角 80.899°
近地点: 152.941km
远地点: 175.499km
周期: 87.773分钟
每日圈数: 16.405962
详细信息
使用方式:
暂无